О сайте АЭРОКЛУБЫ И АЭРОДРОМЫ:

Добрый день Уважаемые посетители сайта!
Этот ресурс создан с целью предоставить любителям малой авиации максимум полезной информации и возможностей по обмену различными сведениями об аэродромах и интересных маршрутах. Для этого на сайте есть странички Аэродромы - информация из баз АОПА (в том виде как она предоставляется к свободному использованию) и Каталог аэродромов и аэроклубов , с различными вариантами поиска и сортировки, возможностью найти трансфер, арендовать авто или забронировать номер в гостинице on-line, а так же возможностями :
- для аэроклубов - добавить какую либо дополнительную информацию в страничку , посвященную аэроклубу
(чтобы добавить информацию необходимо зарегистрироваться, и подтвердить свою принадлежность к какому либо аэроклубу)
- для посетителей - поделиться каким либо интересным маршрутом, нарисовать его на карте, описать достопримечательности, загрузить фотографии и поставить в соответствие с каким либо клубом или аэродромом.
(чтобы добавить информацию необходимо зарегистрироваться)

Аэроклубы / Аэродромы в Москве

Карта аэродромов в Москве по коду ИКАО

Список аэродромов Москвы

Javascript is required to view this map.

Авиационная погода в Москва - Домодедово

Регион: 
Погода METAR: 
UUDD 171330Z 06008MPS 020V090 CAVOK 19/M00 Q1018 RMK WS R14R R88/CLRD60 NOSIG
Время наблюдения
2021-04-17T13:30:00Z
Температура C
19.0
Точка росы
0.0
Направление ветра
60
Скорость ветра (узлы)
16
Метео видимость
6.21
Явления погоды
Условия полета
VFR
Аэропорт подробнее: 

Авиационная погода в Москва - Шереметьево

Регион: 
Погода METAR: 
UUEE 171330Z 06009MPS CAVOK 17/01 Q1020 R06C/CLRD62 R06L/CLRD62 NOSIG
Время наблюдения
2021-04-17T13:30:00Z
Температура C
17.0
Точка росы
1.0
Направление ветра
60
Скорость ветра (узлы)
17
Метео видимость
6.21
Явления погоды
Условия полета
VFR
Аэропорт подробнее: 

Авиационная погода в Москва - Внуково

Регион: 
Погода METAR: 
UUWW 171330Z 07009MPS CAVOK 17/01 Q1019 R06/000070 NOSIG
Время наблюдения
2021-04-17T13:30:00Z
Температура C
17.0
Точка росы
1.0
Направление ветра
70
Скорость ветра (узлы)
17
Метео видимость
6.21
Явления погоды
Условия полета
VFR
Аэропорт подробнее: 

Аэроклубы и аэродромы по регионам Юга России